Hourly Data Report for July 25, 2004

SHERBROOKE A
QUEBEC

45°26'00.000" N
71°41'00.000" W
241.40 m
7028124
71610
YSC

Download Data

Hourly Data (July 2004)
Hourly Data Report for July 25, 2004
TIME
LST
Temp Definition
°C
Dew Point Definition
°C
Rel Hum Definition
%
Precip. Amount Definition
mm

Wind Dir Definition
10's deg

Wind Spd Definition
km/h
Visibility Definition
km
Stn Press Definition
kPa
Hmdx Definition


Wind Chill Definition


Weather Definition


00:00 8.8 8.0 95   11 6 15.0 99.93      
01:00 8.3 7.5 95   10 6 15.0 99.93      
02:00 8.2 7.4 95   10 4 15.0 99.92      
03:00 8.2 7.3 94   10 6 15.0 99.92      
04:00 8.0 7.1 94   12 4 15.0 99.96      
05:00 8.0 7.0 93   10 6 15.0 100.01      
06:00 9.3 8.0 92   11 4 15.0 100.02      
07:00 12.3 9.7 84   10 6 24.1 100.02     Mostly Cloudy
08:00 15.3 10.0 71   6 6 24.1 99.99     Mostly Cloudy
09:00 17.2 9.7 61     0 24.1 99.96     Mostly Cloudy
10:00 18.5 10.9 61   35 4 24.1 99.92     Mostly Cloudy
11:00 19.7 9.4 51   3 7 24.1 99.86     Mostly Cloudy
12:00 20.5 10.2 52   28 6 24.1 99.79     Mostly Cloudy
13:00 21.5 6.4 37   11 7 24.1 99.75     Mostly Cloudy
14:00 22.2 8.7 42   35 7 24.1 99.71     Mostly Cloudy
15:00 21.6 9.7 47   1 6 24.1 99.67     Mostly Cloudy
16:00 22.1 9.4 44   32 4 24.1 99.62     Mostly Cloudy
17:00 21.2 9.0 46   31 4 15.0 99.60      
18:00 19.5 15.2 76     0 15.0 99.57      
19:00 16.2 12.4 78     0 15.0 99.57      
20:00 13.4 11.4 88     0 15.0 99.57      
21:00 12.9 11.6 92   14 4 15.0 99.58      
22:00 11.9 11.4 97     0 15.0 99.59      
23:00 11.8 11.3 97   12 4 15.0 99.57      

Notes on Data Quality.

Legend

  • E = Estimated
  • M = Missing
  • NA = Not Available*
  • [empty] = Indicates an unobserved value
Date modified: